Location: Budapest
(47.4979°N, 19.0402°E)
Time: 10:25:33
(UTC+02:00)

ISS - Pass Details

Date: 05 October 2020
Orbit: 418 x 420 km, 51.6° (Epoch: 21 October)

Event Time Altitude Azimuth Distance (km) Brightness Sun altitude
Rises 19:33:42 0° 291° (WNW) 2,369 1.8 -14.2°
Reaches altitude 10° 19:35:56 10° 281° (W) 1,502 0.5 -14.5°
Maximum altitude 19:38:58 31° 217° (SW) 755 -2.2 -15.0°
Enters shadow 19:41:12 15° 160° (SSE) 1,218 -1.7 -15.4°
